Weather Roundup
Issued by NWS Corpus Christi, TX

Home | Current Version | Previous Version | Text Only | Print | Product List | Glossary On
Versions: 1 2 3 4 5 6 7 8 9 10 11 12 13 14 15 16 17 18 19 20 21 22 23 24 25 26 27 28 29 30 31 32 33 34 35 36 37 38 39 40 41 42 43 44 45 46 47 48 49 50
000
ASUS44 KCRP 301710
HRRCRP

SOUTH TEXAS REGIONAL WEATHER ROUNDUP
NATIONAL WEATHER SERVICE CORPUS CHRISTI TX
1200 PM CDT THU OCT 30 2014


TXZ229>244-301800-
...CORPUS CHRISTI AREA OBSERVATIONS...

CITY           SKY/WX    TMP DP  RH WIND       PRES   REMARKS
CORPUS CHRISTI PTSUNNY   83  70  64 N5        30.09F
NAS CORPUS CHR MOSUNNY   82  73  74 N8        30.09F
ROCKPORT       SUNNY     81  71  71 E8        30.10S
KINGSVILLE NAS MOSUNNY   83  69  62 E3        30.09F
ALICE          PTSUNNY   80  69  69 CALM      30.10F
FALFURRIAS     MOSUNNY   80  68  67 CALM      30.10S
$$

...VICTORIA AREA OBSERVATIONS...

CITY           SKY/WX    TMP DP  RH WIND       PRES   REMARKS
VICTORIA       MOSUNNY   79  65  62 E8        30.12F
BEEVILLE       FAIR      78  68  72 CALM      30.11F
PLEASANTON     SUNNY     77  64  65 NE5       30.13F
SAN ANTONIO    MOSUNNY   74  63  68 S5        30.14F
$$

...LAREDO AREA OBSERVATIONS...

CITY           SKY/WX    TMP DP  RH WIND       PRES   REMARKS
LAREDO         SUNNY     83  65  54 SE3       30.13F
COTULLA        SUNNY     82  65  56 SE8       30.11F
DEL RIO        SUNNY     77  66  68 S8        30.11F
MCALLEN        MOSUNNY   81  67  62 SE3       30.10F
HEBBRONVILLE   SUNNY     79  64  60 S3        30.12F
$$

...OTHER TEXAS OBSERVATIONS...

CITY           SKY/WX    TMP DP  RH WIND       PRES   REMARKS
BROWNSVILLE    SUNNY     85  68  56 CALM      30.09F
HOUSTON        SUNNY     72  50  45 VRB6      30.15S
COL. STATION   SUNNY     70  48  45 E6        30.16F
AUSTIN         PTSUNNY   72  57  59 S3        30.15F
WACO           MOSUNNY   69  47  45 SE9       30.17F
FORT WORTH     MOSUNNY   71  46  40 S10       30.15F
WICHITA FALLS  MOSUNNY   73  54  51 SW10      30.13F
LUBBOCK        SUNNY     68  47  46 N16       30.18R
EL PASO        SUNNY     69  40  34 N7        30.24S
$$

...MARINE OBSERVATIONS...

STATION/POSITION TIME  SKY/WX   TEMP    WIND        PRES    VSBY  WAVE   SWELL
                                AIR SEA DIR/SP/G                  HT/PER HT/PER
                 (UTC)          (F)     (DEG/KT/KT) (MB)    (MI)  (FT/S) (FT/S)
PORT ARANSAS     1700            76 79   40/  8/  9 1019.6F
BUOY 90 E PORT A 1700            76 79   40/  8/ 10 1019.4F         2/ 5   2/ 5
BUOY 45 SE BAFFI 1700            79 81   80/  4/  6 1018.4F         1/ 6   2/ 6
BUOY 200 E PT IS 1700            78 81   30/  6/  8 1018.2F         2/ 6   2/ 6
BUOY 15 E GALVES 1700            70 77   60/ 12/ 14 1019.7S         3/ 5   2/ 6
$$



USA.gov is the U.S. government's official web portal to all federal, state and local government web resources and services.